Regional Weather Roundup
Issued by NWS Green Bay, WI

Home | Current Version | Previous Version | Graphics & Text | Print | Product List | Glossary Off
Versions: 1 2 3 4 5 6 7 8 9 10 11 12 13 14 15 16 17 18 19 20 21 22 23 24 25 26 27 28 29 30 31 32 33 34 35 36 37 38 39 40 41 42 43 44 45 46 47 48 49 50

000
ASUS43 KGRB 020100
RWRGRB

NORTH-CENTRAL AND NORTHEAST WISCONSIN REGIONAL WEATHER ROUNDUP
NATIONAL WEATHER SERVICE GREEN BAY WI
800 PM CDT SUN MAY 01 2016

WIZ005-009-010>012-018-019-020200-
NORTH CENTRAL WISCONSIN

CITY           SKY/WX    TMP DP  RH WIND       PRES   REMARKS
IRONWOOD         N/A     45  34  65 NE5       30.13S
MANITOWISH WTR NOT AVBL
ARBOR VITAE    NOT AVBL
EAGLE RIVER    NOT AVBL
LAND O LAKES   NOT AVBL
RHINELANDER    CLOUDY    54  30  40 NE3       30.09R
PHILLIPS       NOT AVBL
ANTIGO         NOT AVBL
TOMAHAWK       NOT AVBL
MERRILL        NOT AVBL
$$

WIZ013-073-020200-
NORTHEAST WISCONSIN

CITY           SKY/WX    TMP DP  RH WIND       PRES   REMARKS
IRON MOUNTAIN  CLEAR     54  26  34 NE10G17   30.10R
MARINETTE      CLEAR     48  34  57 E5        30.10S
$$

WIZ017-030-035>037-045-020200-
CENTRAL WISCONSIN

CITY           SKY/WX    TMP DP  RH WIND       PRES   REMARKS
MEDFORD        NOT AVBL
WAUSAU         MOCLDY    57  32  38 SE7       30.07R
MOSINEE        NOT AVBL
MARSHFIELD     CLOUDY    54  34  46 SE8       30.07R
WISC RAPIDS    CLOUDY    54  33  45 E7        30.09R
STEVENS POINT  NOT AVBL
WAUPACA        NOT AVBL
SHAWANO        NOT AVBL
CLINTONVILLE   NOT AVBL
WAUTOMA        PTCLDY    53  37  54 NE9       30.08R
$$

WIZ038-039-048-051-020200-
FOX VALLEY

CITY           SKY/WX    TMP DP  RH WIND       PRES   REMARKS
NWS GREEN BAY  MOCLDY    52  40  63 NE9       30.09S
APPLETON       PTCLDY    52  37  58 E12       30.07R
OSHKOSH        CLOUDY    50  40  68 NE12      30.07R
FOND DU LAC    CLOUDY    50  42  74 NE12      30.06S
$$

WIZ022-050-052-020200-
EAST CENTRAL WISCONSIN

CITY           SKY/WX    TMP DP  RH WIND       PRES   REMARKS
EPHRAIM        NOT AVBL
STURGEON BAY   CLEAR     50  36  57 NE3       30.12S
MANITOWOC      CLOUDY    48  37  66 MISG      30.08S
SHEBOYGAN      CLOUDY    47  38  71 NE14      30.06S
$$

LMZ563-521-522-541>543-020200-
LAKESHORE

STATION/POSITION TIME  TEMP    WIND        PRES    VSBY  WAVE
                       AIR SEA DIR/SP/G                  HT/PER
                 (UTC) (F)     (DEG/KT/KT) (MB)    (MI)  (FT/S)
SHEBOYGAN LKSHOR 0000   42      20/ 15/ 18 1018.8F
KEWAUNEE LKSHORE 0000           20/ 10/ 13 1018.3F
NORTHPORT PIER   0000   50      CALM  /  2 1019.3R
N MID LAKE BUOY  2350   42 39  330/  8/  8 1019.1F         0
CHAMBERS ISLAND  0000   49     350/  3/  4 1019.6R
MENOMINEE LKSHOR 0024           20/  6/  7 1018.3R
$$




USA.gov is the U.S. government's official web portal to all federal, state and local government web resources and services.